Time,TemperatureF,DewpointF,PressureIn,WindDirection,WindDirectionDegrees,WindSpeedMPH,WindSpeedGustMPH,Humidity,HourlyPrecipIn,Conditions,Clouds,dailyrainin,SoftwareType,DateUTC
2013-09-08 00:04:00,58.7,57.3,29.89,South,178,0.0,0.0,95,0.00,,,0.00,Wunderground v.1.15,2013-09-08 04:04:00,
2013-09-08 00:10:00,58.7,57.3,29.89,South,178,0.0,0.0,95,0.00,,,0.00,Wunderground v.1.15,2013-09-08 04:10:00,
2013-09-08 00:15:00,58.6,57.2,29.88,South,178,0.0,0.0,95,0.00,,,0.00,Wunderground v.1.15,2013-09-08 04:15:00,
2013-09-08 00:20:00,58.6,57.2,29.88,South,178,0.0,0.0,95,0.00,,,0.00,Wunderground v.1.15,2013-09-08 04:20:00,
2013-09-08 00:25:00,58.6,57.2,29.88,South,178,0.0,0.0,95,0.00,,,0.00,Wunderground v.1.15,2013-09-08 04:25:00,
2013-09-08 00:30:00,58.6,57.2,29.89,South,178,0.0,0.0,95,0.00,,,0.00,Wunderground v.1.15,2013-09-08 04:30:00,
2013-09-08 00:35:00,58.5,57.1,29.88,South,178,0.0,0.0,95,0.00,,,0.00,Wunderground v.1.15,2013-09-08 04:35:00,
2013-09-08 00:40:00,58.6,57.2,29.88,South,178,0.0,0.0,95,0.00,,,0.00,Wunderground v.1.15,2013-09-08 04:40:00,
2013-09-08 00:45:00,58.6,57.2,29.88,South,178,0.0,0.0,95,0.00,,,0.00,Wunderground v.1.15,2013-09-08 04:45:00,
2013-09-08 00:50:00,58.6,57.2,29.88,South,178,0.0,0.0,95,0.00,,,0.00,Wunderground v.1.15,2013-09-08 04:50:00,
2013-09-08 00:54:00,58.6,57.2,29.88,South,178,0.0,0.0,95,0.00,,,0.00,Wunderground v.1.15,2013-09-08 04:54:00,
2013-09-08 00:59:00,58.6,57.2,29.88,South,178,0.0,0.0,95,0.00,,,0.00,Wunderground v.1.15,2013-09-08 04:59:00,
2013-09-08 01:05:00,58.7,57.3,29.88,South,178,0.0,0.0,95,0.00,,,0.00,Wunderground v.1.15,2013-09-08 05:05:00,
2013-09-08 01:10:00,58.7,57.3,29.88,South,178,0.0,0.0,95,0.00,,,0.00,Wunderground v.1.15,2013-09-08 05:10:00,
2013-09-08 01:15:00,58.7,57.3,29.88,South,178,0.0,0.0,95,0.00,,,0.00,Wunderground v.1.15,2013-09-08 05:15:00,
2013-09-08 01:20:00,58.8,57.4,29.88,South,178,0.0,0.0,95,0.00,,,0.00,Wunderground v.1.15,2013-09-08 05:20:00,
2013-09-08 01:25:00,58.8,57.4,29.88,South,178,0.0,0.0,95,0.00,,,0.00,Wunderground v.1.15,2013-09-08 05:25:00,
2013-09-08 01:29:00,58.7,57.3,29.87,South,178,0.0,0.0,95,0.00,,,0.00,Wunderground v.1.15,2013-09-08 05:29:00,
2013-09-08 01:34:00,58.6,57.2,29.87,South,178,0.0,0.0,95,0.00,,,0.00,Wunderground v.1.15,2013-09-08 05:34:00,
2013-09-08 01:39:00,58.6,57.2,29.87,South,178,0.0,0.0,95,0.00,,,0.00,Wunderground v.1.15,2013-09-08 05:39:00,
2013-09-08 01:45:00,58.6,57.2,29.87,South,178,0.0,0.0,95,0.00,,,0.00,Wunderground v.1.15,2013-09-08 05:45:00,
2013-09-08 01:50:00,58.6,57.2,29.87,South,178,0.0,0.0,95,0.00,,,0.00,Wunderground v.1.15,2013-09-08 05:50:00,
2013-09-08 01:55:00,58.7,57.3,29.86,South,178,0.0,0.0,95,0.00,,,0.00,Wunderground v.1.15,2013-09-08 05:55:00,
2013-09-08 02:00:00,58.7,57.6,29.86,South,178,0.0,0.0,96,0.00,,,0.00,Wunderground v.1.15,2013-09-08 06:00:00,
2013-09-08 02:04:00,58.9,57.5,29.85,South,178,0.0,0.0,95,0.00,,,0.00,Wunderground v.1.15,2013-09-08 06:04:00,
2013-09-08 02:10:00,59.0,58.4,29.85,South,178,0.0,0.0,98,0.00,,,0.00,Wunderground v.1.15,2013-09-08 06:10:00,
2013-09-08 02:14:00,59.0,58.4,29.86,South,178,0.0,0.0,98,0.00,,,0.00,Wunderground v.1.15,2013-09-08 06:14:00,
2013-09-08 02:20:00,58.9,57.5,29.86,NW,304,0.0,0.0,95,0.00,,,0.00,Wunderground v.1.15,2013-09-08 06:20:00,
2013-09-08 02:25:00,58.9,57.5,29.86,NW,306,0.0,0.0,95,0.00,,,0.00,Wunderground v.1.15,2013-09-08 06:25:00,
2013-09-08 02:30:00,59.1,57.7,29.86,NW,306,0.0,0.0,95,0.00,,,0.00,Wunderground v.1.15,2013-09-08 06:30:00,
2013-09-08 02:35:00,59.3,57.6,29.86,NW,306,0.0,0.0,94,0.00,,,0.00,Wunderground v.1.15,2013-09-08 06:35:00,
2013-09-08 02:40:00,59.5,57.5,29.86,WSW,257,0.0,0.0,93,0.00,,,0.00,Wunderground v.1.15,2013-09-08 06:40:00,
2013-09-08 02:45:00,59.7,57.7,29.86,North,5,0.0,0.0,93,0.00,,,0.00,Wunderground v.1.15,2013-09-08 06:45:00,
2013-09-08 02:49:00,59.7,57.7,29.85,North,5,0.0,0.0,93,0.00,,,0.00,Wunderground v.1.15,2013-09-08 06:49:00,
2013-09-08 02:54:00,59.7,57.7,29.85,North,5,0.0,0.0,93,0.00,,,0.00,Wunderground v.1.15,2013-09-08 06:54:00,
2013-09-08 03:00:00,59.8,57.8,29.84,NE,43,0.0,0.0,93,0.00,,,0.00,Wunderground v.1.15,2013-09-08 07:00:00,
2013-09-08 03:05:00,59.8,57.8,29.84,NE,43,0.0,0.0,93,0.00,,,0.00,Wunderground v.1.15,2013-09-08 07:05:00,
2013-09-08 03:10:00,59.8,57.8,29.84,NE,43,0.0,0.0,93,0.00,,,0.00,Wunderground v.1.15,2013-09-08 07:10:00,
2013-09-08 03:15:00,59.7,57.7,29.84,NE,49,0.0,0.0,93,0.00,,,0.00,Wunderground v.1.15,2013-09-08 07:15:00,
2013-09-08 03:20:00,59.7,57.7,29.84,NE,49,0.0,0.0,93,0.00,,,0.00,Wunderground v.1.15,2013-09-08 07:20:00,
2013-09-08 03:25:00,59.6,57.6,29.84,NE,49,0.0,0.0,93,0.00,,,0.00,Wunderground v.1.15,2013-09-08 07:25:00,
2013-09-08 03:29:00,59.6,57.6,29.84,NE,49,0.0,0.0,93,0.00,,,0.00,Wunderground v.1.15,2013-09-08 07:29:00,
2013-09-08 03:34:00,59.6,57.9,29.84,NE,49,0.0,0.0,94,0.00,,,0.00,Wunderground v.1.15,2013-09-08 07:34:00,
2013-09-08 03:40:00,59.7,58.0,29.84,NE,49,0.0,0.0,94,0.00,,,0.00,Wunderground v.1.15,2013-09-08 07:40:00,
2013-09-08 03:45:00,59.7,57.7,29.84,NE,49,0.0,0.0,93,0.00,,,0.00,Wunderground v.1.15,2013-09-08 07:45:00,
2013-09-08 03:50:00,59.8,57.8,29.84,NE,49,0.0,0.0,93,0.00,,,0.00,Wunderground v.1.15,2013-09-08 07:50:00,
2013-09-08 03:55:00,60.0,58.3,29.84,NE,49,0.0,0.0,94,0.00,,,0.00,Wunderground v.1.15,2013-09-08 07:55:00,
2013-09-08 04:00:00,60.1,58.1,29.84,NW,311,0.0,0.0,93,0.00,,,0.00,Wunderground v.1.15,2013-09-08 08:00:00,
2013-09-08 04:05:00,60.2,57.9,29.84,NW,310,0.0,0.0,92,0.00,,,0.00,Wunderground v.1.15,2013-09-08 08:05:00,
2013-09-08 04:09:00,60.4,58.1,29.84,NW,310,0.0,0.0,92,0.00,,,0.00,Wunderground v.1.15,2013-09-08 08:09:00,
2013-09-08 04:15:00,60.5,58.2,29.84,NW,310,0.0,0.0,92,0.00,,,0.00,Wunderground v.1.15,2013-09-08 08:15:00,
2013-09-08 04:20:00,60.6,58.6,29.84,NW,310,0.0,0.0,93,0.00,,,0.00,Wunderground v.1.15,2013-09-08 08:20:00,
2013-09-08 04:25:00,60.6,58.6,29.83,NW,310,0.0,0.0,93,0.00,,,0.00,Wunderground v.1.15,2013-09-08 08:25:00,
2013-09-08 04:30:00,60.6,58.6,29.83,NW,310,0.0,0.0,93,0.00,,,0.00,Wunderground v.1.15,2013-09-08 08:30:00,
2013-09-08 04:35:00,60.6,58.6,29.83,NW,310,0.0,0.0,93,0.00,,,0.00,Wunderground v.1.15,2013-09-08 08:35:00,
2013-09-08 04:40:00,60.6,58.3,29.82,NW,310,0.0,0.0,92,0.00,,,0.00,Wunderground v.1.15,2013-09-08 08:40:00,
2013-09-08 04:44:00,60.6,58.3,29.82,NW,310,0.0,0.0,92,0.00,,,0.00,Wunderground v.1.15,2013-09-08 08:44:00,
2013-09-08 04:49:00,60.6,58.3,29.82,NW,310,0.0,0.0,92,0.00,,,0.00,Wunderground v.1.15,2013-09-08 08:49:00,
2013-09-08 04:55:00,60.7,58.4,29.82,NW,310,0.0,0.0,92,0.00,,,0.00,Wunderground v.1.15,2013-09-08 08:55:00,
2013-09-08 05:00:00,60.7,58.4,29.82,NW,310,0.0,0.0,92,0.00,,,0.00,Wunderground v.1.15,2013-09-08 09:00:00,
2013-09-08 05:05:00,60.8,58.5,29.82,NW,310,0.0,0.0,92,0.00,,,0.00,Wunderground v.1.15,2013-09-08 09:05:00,
2013-09-08 05:10:00,60.8,58.5,29.81,NW,310,0.0,0.0,92,0.00,,,0.00,Wunderground v.1.15,2013-09-08 09:10:00,
2013-09-08 05:15:00,60.7,58.7,29.81,NW,310,0.0,0.0,93,0.00,,,0.00,Wunderground v.1.15,2013-09-08 09:15:00,
2013-09-08 05:20:00,60.9,58.6,29.81,NW,308,0.0,0.0,92,0.00,,,0.00,Wunderground v.1.15,2013-09-08 09:20:00,
2013-09-08 05:25:00,61.1,58.8,29.82,NW,306,0.0,0.0,92,0.00,,,0.00,Wunderground v.1.15,2013-09-08 09:25:00,
2013-09-08 05:30:00,61.2,58.6,29.82,NW,306,0.0,0.0,91,0.00,,,0.00,Wunderground v.1.15,2013-09-08 09:30:00,
2013-09-08 05:35:00,61.4,58.7,29.82,NW,306,0.0,0.0,91,0.00,,,0.00,Wunderground v.1.15,2013-09-08 09:35:00,
2013-09-08 05:40:00,61.5,58.8,29.82,NW,306,0.0,0.0,91,0.00,,,0.00,Wunderground v.1.15,2013-09-08 09:40:00,
2013-09-08 05:45:00,61.4,58.7,29.81,NW,306,0.0,0.0,91,0.00,,,0.00,Wunderground v.1.15,2013-09-08 09:45:00,
2013-09-08 05:49:00,61.5,58.5,29.82,NW,306,0.0,0.0,90,0.00,,,0.00,Wunderground v.1.15,2013-09-08 09:49:00,
2013-09-08 05:54:00,61.6,58.9,29.82,NW,306,0.0,0.0,91,0.00,,,0.00,Wunderground v.1.15,2013-09-08 09:54:00,
2013-09-08 06:00:00,61.7,59.0,29.82,NW,306,0.0,0.0,91,0.00,,,0.00,Wunderground v.1.15,2013-09-08 10:00:00,
2013-09-08 06:05:00,61.8,58.8,29.83,NW,306,0.0,0.0,90,0.00,,,0.00,Wunderground v.1.15,2013-09-08 10:05:00,
2013-09-08 06:10:00,62.0,59.0,29.83,NW,306,0.0,0.0,90,0.00,,,0.00,Wunderground v.1.15,2013-09-08 10:10:00,
2013-09-08 06:15:00,62.0,59.0,29.83,NW,306,0.0,0.0,90,0.00,,,0.00,Wunderground v.1.15,2013-09-08 10:15:00,
2013-09-08 06:20:00,62.0,59.3,29.83,NW,306,0.0,0.0,91,0.00,,,0.00,Wunderground v.1.15,2013-09-08 10:20:00,
2013-09-08 06:25:00,62.0,59.3,29.83,NW,306,0.0,0.0,91,0.00,,,0.00,Wunderground v.1.15,2013-09-08 10:25:00,
2013-09-08 06:34:00,61.9,59.2,29.83,NW,306,0.0,0.0,91,0.00,,,0.00,Wunderground v.1.15,2013-09-08 10:34:00,
2013-09-08 06:40:00,61.7,59.4,29.83,NW,306,0.0,0.0,92,0.00,,,0.00,Wunderground v.1.15,2013-09-08 10:40:00,
2013-09-08 06:45:00,61.5,59.2,29.82,SSW,192,0.0,0.0,92,0.00,,,0.00,Wunderground v.1.15,2013-09-08 10:45:00,
2013-09-08 06:50:00,61.4,59.1,29.83,SSW,192,0.0,0.0,92,0.00,,,0.00,Wunderground v.1.15,2013-09-08 10:50:00,
2013-09-08 06:55:00,61.3,59.0,29.83,SSW,192,0.0,0.0,92,0.00,,,0.00,Wunderground v.1.15,2013-09-08 10:55:00,
2013-09-08 07:00:00,61.3,59.3,29.83,SSW,192,0.0,0.0,93,0.00,,,0.00,Wunderground v.1.15,2013-09-08 11:00:00,
2013-09-08 07:05:00,61.4,59.4,29.83,WNW,301,0.0,0.0,93,0.00,,,0.00,Wunderground v.1.15,2013-09-08 11:05:00,
2013-09-08 07:09:00,61.5,59.5,29.83,WNW,299,0.0,0.0,93,0.00,,,0.00,Wunderground v.1.15,2013-09-08 11:09:00,
2013-09-08 07:15:00,61.7,59.7,29.83,WNW,299,0.0,0.0,93,0.00,,,0.00,Wunderground v.1.15,2013-09-08 11:15:00,
2013-09-08 07:20:00,61.8,59.8,29.83,WNW,298,0.0,0.0,93,0.00,,,0.00,Wunderground v.1.15,2013-09-08 11:20:00,
2013-09-08 07:25:00,61.9,59.5,29.84,WNW,298,0.0,0.0,92,0.00,,,0.00,Wunderground v.1.15,2013-09-08 11:25:00,
2013-09-08 07:30:00,62.1,59.7,29.84,WNW,298,0.0,0.0,92,0.00,,,0.00,Wunderground v.1.15,2013-09-08 11:30:00,
2013-09-08 07:35:00,62.2,59.8,29.84,WNW,298,0.0,0.0,92,0.00,,,0.00,Wunderground v.1.15,2013-09-08 11:35:00,
2013-09-08 07:40:00,62.3,60.2,29.84,WNW,298,0.0,0.0,93,0.00,,,0.00,Wunderground v.1.15,2013-09-08 11:40:00,
2013-09-08 07:44:00,62.5,60.4,29.83,WNW,298,0.0,0.0,93,0.00,,,0.00,Wunderground v.1.15,2013-09-08 11:44:00,
2013-09-08 07:49:00,62.7,60.6,29.82,WNW,298,0.0,0.0,93,0.00,,,0.00,Wunderground v.1.15,2013-09-08 11:49:00,
2013-09-08 07:55:00,62.8,60.7,29.83,WNW,298,0.0,0.0,93,0.00,,,0.00,Wunderground v.1.15,2013-09-08 11:55:00,
2013-09-08 08:00:00,62.9,60.8,29.83,WNW,298,0.0,0.0,93,0.00,,,0.00,Wunderground v.1.15,2013-09-08 12:00:00,
2013-09-08 08:05:00,63.1,61.0,29.82,WNW,298,0.0,0.0,93,0.00,,,0.00,Wunderground v.1.15,2013-09-08 12:05:00,
2013-09-08 08:10:00,63.4,61.0,29.83,WNW,298,0.0,0.0,92,0.00,,,0.00,Wunderground v.1.15,2013-09-08 12:10:00,
2013-09-08 08:14:00,63.8,61.4,29.83,SSW,194,0.0,0.0,92,0.00,,,0.00,Wunderground v.1.15,2013-09-08 12:14:00,
2013-09-08 08:20:00,64.2,61.5,29.83,SSW,194,0.0,0.0,91,0.00,,,0.00,Wunderground v.1.15,2013-09-08 12:20:00,
2013-09-08 08:25:00,64.4,61.7,29.83,SSW,194,0.0,0.0,91,0.00,,,0.00,Wunderground v.1.15,2013-09-08 12:25:00,
2013-09-08 08:30:00,64.5,61.5,29.83,NW,304,0.0,0.0,90,0.00,,,0.00,Wunderground v.1.15,2013-09-08 12:30:00,
2013-09-08 08:35:00,64.4,61.1,29.83,NW,306,0.0,0.0,89,0.00,,,0.00,Wunderground v.1.15,2013-09-08 12:35:00,
2013-09-08 08:40:00,64.4,61.1,29.84,NW,317,0.0,0.0,89,0.00,,,0.00,Wunderground v.1.15,2013-09-08 12:40:00,
2013-09-08 08:45:00,64.4,61.1,29.84,West,278,0.0,0.0,89,0.00,,,0.00,Wunderground v.1.15,2013-09-08 12:45:00,
2013-09-08 08:49:00,64.3,61.0,29.84,WNW,284,0.0,0.0,89,0.00,,,0.00,Wunderground v.1.15,2013-09-08 12:49:00,
2013-09-08 08:55:00,64.4,61.4,29.84,WNW,287,0.0,0.0,90,0.00,,,0.00,Wunderground v.1.15,2013-09-08 12:55:00,
2013-09-08 09:00:00,64.4,61.1,29.84,WNW,295,0.0,0.0,89,0.00,,,0.00,Wunderground v.1.15,2013-09-08 13:00:00,
2013-09-08 09:05:00,64.5,61.2,29.84,WNW,292,0.0,0.0,89,0.00,,,0.00,Wunderground v.1.15,2013-09-08 13:05:00,
2013-09-08 09:10:00,64.7,61.4,29.84,WNW,292,0.0,0.0,89,0.00,,,0.00,Wunderground v.1.15,2013-09-08 13:10:00,
2013-09-08 09:15:00,64.9,61.6,29.84,WSW,245,0.0,0.0,89,0.00,,,0.00,Wunderground v.1.15,2013-09-08 13:15:00,
2013-09-08 09:20:00,64.9,61.3,29.85,NW,317,0.0,0.0,88,0.00,,,0.00,Wunderground v.1.15,2013-09-08 13:20:00,
2013-09-08 09:24:00,65.0,61.0,29.85,WNW,288,1.0,4.0,87,0.00,,,0.00,Wunderground v.1.15,2013-09-08 13:24:00,
2013-09-08 09:29:00,65.0,61.0,29.85,NNW,330,3.0,3.0,87,0.00,,,0.00,Wunderground v.1.15,2013-09-08 13:29:00,
2013-09-08 09:35:00,65.1,60.8,29.85,NW,305,5.0,10.0,86,0.00,,,0.00,Wunderground v.1.15,2013-09-08 13:35:00,
2013-09-08 09:40:00,65.2,60.9,29.85,WNW,292,7.0,7.0,86,0.00,,,0.00,Wunderground v.1.15,2013-09-08 13:40:00,
2013-09-08 09:45:00,65.1,60.8,29.85,WNW,296,6.0,7.0,86,0.00,,,0.00,Wunderground v.1.15,2013-09-08 13:45:00,
2013-09-08 09:50:00,65.3,61.0,29.85,WNW,303,5.0,5.0,86,0.00,,,0.00,Wunderground v.1.15,2013-09-08 13:50:00,
2013-09-08 09:55:00,65.9,61.6,29.85,West,261,3.0,5.0,86,0.00,,,0.00,Wunderground v.1.15,2013-09-08 13:55:00,
2013-09-08 09:59:00,66.5,61.8,29.85,WNW,301,3.0,3.0,85,0.00,,,0.00,Wunderground v.1.15,2013-09-08 13:59:00,
2013-09-08 10:04:00,67.0,61.3,29.85,West,276,3.0,5.0,82,0.00,,,0.00,Wunderground v.1.15,2013-09-08 14:04:00,
2013-09-08 10:10:00,67.3,61.3,29.85,WNW,294,3.0,7.0,81,0.00,,,0.00,Wunderground v.1.15,2013-09-08 14:10:00,
2013-09-08 10:15:00,67.4,61.4,29.86,WNW,292,5.0,7.0,81,0.00,,,0.00,Wunderground v.1.15,2013-09-08 14:15:00,
2013-09-08 10:20:00,67.9,61.5,29.86,NW,307,5.0,5.0,80,0.00,,,0.00,Wunderground v.1.15,2013-09-08 14:20:00,
2013-09-08 10:25:00,68.0,60.9,29.86,WNW,294,6.0,6.0,78,0.00,,,0.00,Wunderground v.1.15,2013-09-08 14:25:00,
2013-09-08 10:30:00,68.0,61.2,29.86,NW,317,7.0,14.0,79,0.00,,,0.00,Wunderground v.1.15,2013-09-08 14:30:00,
2013-09-08 10:35:00,68.0,60.9,29.86,WNW,295,6.0,14.0,78,0.00,,,0.00,Wunderground v.1.15,2013-09-08 14:35:00,
2013-09-08 10:39:00,68.1,61.7,29.86,WNW,288,6.0,6.0,80,0.00,,,0.00,Wunderground v.1.15,2013-09-08 14:39:00,
2013-09-08 10:45:00,68.3,61.2,29.86,WNW,284,6.0,6.0,78,0.00,,,0.00,Wunderground v.1.15,2013-09-08 14:45:00,
2013-09-08 10:50:00,68.4,62.0,29.86,West,281,5.0,5.0,80,0.00,,,0.00,Wunderground v.1.15,2013-09-08 14:50:00,
2013-09-08 10:55:00,68.6,61.8,29.87,WNW,302,5.0,9.0,79,0.00,,,0.00,Wunderground v.1.15,2013-09-08 14:55:00,
2013-09-08 11:00:00,68.6,61.5,29.86,WNW,301,4.0,4.0,78,0.00,,,0.00,Wunderground v.1.15,2013-09-08 15:00:00,
2013-09-08 11:05:00,68.8,62.4,29.86,West,263,3.0,4.0,80,0.00,,,0.00,Wunderground v.1.15,2013-09-08 15:05:00,
2013-09-08 11:10:00,68.7,61.2,29.86,WNW,290,2.0,2.0,77,0.00,,,0.00,Wunderground v.1.15,2013-09-08 15:10:00,
2013-09-08 11:14:00,69.0,61.1,29.86,WSW,248,3.0,3.0,76,0.00,,,0.00,Wunderground v.1.15,2013-09-08 15:14:00,
2013-09-08 11:19:00,68.8,60.9,29.86,WNW,293,4.0,5.0,76,0.00,,,0.00,Wunderground v.1.15,2013-09-08 15:19:00,
2013-09-08 11:25:00,69.0,60.7,29.86,WNW,292,4.0,5.0,75,0.00,,,0.00,Wunderground v.1.15,2013-09-08 15:25:00,
2013-09-08 11:30:00,69.4,60.4,29.86,WNW,288,5.0,5.0,73,0.00,,,0.00,Wunderground v.1.15,2013-09-08 15:30:00,
2013-09-08 11:35:00,69.7,60.7,29.86,NW,316,4.0,5.0,73,0.00,,,0.00,Wunderground v.1.15,2013-09-08 15:35:00,
2013-09-08 11:40:00,69.5,60.1,29.86,NW,322,3.0,3.0,72,0.00,,,0.00,Wunderground v.1.15,2013-09-08 15:40:00,
2013-09-08 11:45:00,69.5,59.7,29.87,SSW,209,3.0,5.0,71,0.00,,,0.00,Wunderground v.1.15,2013-09-08 15:45:00,
2013-09-08 11:50:00,70.0,59.4,29.87,West,269,5.0,6.0,69,0.00,,,0.00,Wunderground v.1.15,2013-09-08 15:50:00,
2013-09-08 12:00:00,70.1,57.4,29.87,NW,309,6.0,9.0,64,0.00,,,0.00,Wunderground v.1.15,2013-09-08 16:00:00,
2013-09-08 12:05:00,70.2,57.4,29.87,South,173,7.0,9.0,64,0.00,,,0.00,Wunderground v.1.15,2013-09-08 16:05:00,
2013-09-08 12:10:00,70.3,56.2,29.88,NW,311,7.0,7.0,61,0.00,,,0.00,Wunderground v.1.15,2013-09-08 16:10:00,
2013-09-08 12:15:00,70.4,55.8,29.88,WNW,301,7.0,9.0,60,0.00,,,0.00,Wunderground v.1.15,2013-09-08 16:15:00,
2013-09-08 12:20:00,70.4,54.4,29.88,WNW,292,7.0,7.0,57,0.00,,,0.00,Wunderground v.1.15,2013-09-08 16:20:00,
2013-09-08 12:24:00,70.0,55.0,29.88,WSW,244,6.0,7.0,59,0.00,,,0.00,Wunderground v.1.15,2013-09-08 16:24:00,
2013-09-08 12:29:00,69.9,54.4,29.88,WNW,290,7.0,7.0,58,0.00,,,0.00,Wunderground v.1.15,2013-09-08 16:29:00,
2013-09-08 12:35:00,69.7,54.3,29.88,NW,314,8.0,9.0,58,0.00,,,0.00,Wunderground v.1.15,2013-09-08 16:35:00,
2013-09-08 12:40:00,69.5,53.6,29.88,NW,308,6.0,7.0,57,0.00,,,0.00,Wunderground v.1.15,2013-09-08 16:40:00,
2013-09-08 12:45:00,69.7,53.3,29.88,WNW,302,6.0,7.0,56,0.00,,,0.00,Wunderground v.1.15,2013-09-08 16:45:00,
2013-09-08 12:50:00,70.2,55.2,29.88,West,278,5.0,5.0,59,0.00,,,0.00,Wunderground v.1.15,2013-09-08 16:50:00,
2013-09-08 12:55:00,70.3,54.3,29.89,NNW,327,4.0,5.0,57,0.00,,,0.00,Wunderground v.1.15,2013-09-08 16:55:00,
2013-09-08 13:00:00,70.5,55.0,29.89,West,279,3.0,8.0,58,0.00,,,0.00,Wunderground v.1.15,2013-09-08 17:00:00,
2013-09-08 13:04:00,70.3,53.4,29.89,NNW,346,4.0,8.0,55,0.00,,,0.00,Wunderground v.1.15,2013-09-08 17:04:00,
2013-09-08 13:10:00,70.3,54.3,29.89,WNW,292,5.0,8.0,57,0.00,,,0.00,Wunderground v.1.15,2013-09-08 17:10:00,
2013-09-08 13:15:00,70.1,52.2,29.89,NW,321,5.0,8.0,53,0.00,,,0.00,Wunderground v.1.15,2013-09-08 17:15:00,
2013-09-08 13:20:00,70.3,52.4,29.90,WNW,297,6.0,6.0,53,0.00,,,0.00,Wunderground v.1.15,2013-09-08 17:20:00,
2013-09-08 13:25:00,70.3,52.4,29.90,West,275,6.0,6.0,53,0.00,,,0.00,Wunderground v.1.15,2013-09-08 17:25:00,
2013-09-08 13:30:00,70.2,51.7,29.90,WNW,285,6.0,6.0,52,0.00,,,0.00,Wunderground v.1.15,2013-09-08 17:30:00,
2013-09-08 13:35:00,70.0,51.6,29.90,WNW,300,7.0,7.0,52,0.00,,,0.00,Wunderground v.1.15,2013-09-08 17:35:00,
2013-09-08 13:39:00,70.1,51.7,29.90,NNW,344,6.0,7.0,52,0.00,,,0.00,Wunderground v.1.15,2013-09-08 17:39:00,
2013-09-08 13:44:00,69.8,52.9,29.90,North,351,6.0,7.0,55,0.00,,,0.00,Wunderground v.1.15,2013-09-08 17:44:00,
2013-09-08 13:49:00,70.0,52.1,29.90,NNW,342,5.0,5.0,53,0.00,,,0.00,Wunderground v.1.15,2013-09-08 17:49:00,
2013-09-08 13:55:00,70.2,51.2,29.91,NW,319,4.0,7.0,51,0.00,,,0.00,Wunderground v.1.15,2013-09-08 17:55:00,
2013-09-08 14:00:00,69.7,50.2,29.90,NNW,329,7.0,7.0,50,0.00,,,0.00,Wunderground v.1.15,2013-09-08 18:00:00,
2013-09-08 14:05:00,69.6,52.2,29.91,WNW,299,7.0,7.0,54,0.00,,,0.00,Wunderground v.1.15,2013-09-08 18:05:00,
2013-09-08 14:10:00,70.0,51.0,29.91,West,281,6.0,6.0,51,0.00,,,0.00,Wunderground v.1.15,2013-09-08 18:10:00,
2013-09-08 14:15:00,70.2,52.8,29.91,WNW,296,5.0,6.0,54,0.00,,,0.00,Wunderground v.1.15,2013-09-08 18:15:00,
2013-09-08 14:19:00,70.6,52.1,29.91,NW,307,5.0,5.0,52,0.00,,,0.00,Wunderground v.1.15,2013-09-08 18:19:00,
2013-09-08 14:24:00,71.0,54.0,29.91,NW,320,3.0,5.0,55,0.00,,,0.00,Wunderground v.1.15,2013-09-08 18:24:00,
2013-09-08 14:29:00,71.0,49.7,29.91,West,275,5.0,5.0,47,0.00,,,0.00,Wunderground v.1.15,2013-09-08 18:29:00,
2013-09-08 14:35:00,70.7,51.7,29.91,WNW,300,6.0,6.0,51,0.00,,,0.00,Wunderground v.1.15,2013-09-08 18:35:00,
2013-09-08 14:40:00,71.1,51.0,29.91,NW,311,5.0,7.0,49,0.00,,,0.00,Wunderground v.1.15,2013-09-08 18:40:00,
2013-09-08 14:45:00,70.8,50.7,29.92,WNW,294,5.0,7.0,49,0.00,,,0.00,Wunderground v.1.15,2013-09-08 18:45:00,
2013-09-08 14:50:00,70.1,50.6,29.92,WNW,290,5.0,6.0,50,0.00,,,0.00,Wunderground v.1.15,2013-09-08 18:50:00,
2013-09-08 14:54:00,69.7,50.2,29.92,NW,321,6.0,7.0,50,0.00,,,0.00,Wunderground v.1.15,2013-09-08 18:54:00,
2013-09-08 14:59:00,69.7,50.8,29.92,WNW,294,7.0,8.0,51,0.00,,,0.00,Wunderground v.1.15,2013-09-08 18:59:00,
2013-09-08 15:04:00,69.7,50.2,29.92,NW,304,6.0,8.0,50,0.00,,,0.00,Wunderground v.1.15,2013-09-08 19:04:00,
2013-09-08 15:10:00,70.1,50.6,29.92,NW,319,5.0,5.0,50,0.00,,,0.00,Wunderground v.1.15,2013-09-08 19:10:00,
2013-09-08 15:15:00,70.1,50.6,29.92,WNW,283,5.0,5.0,50,0.00,,,0.00,Wunderground v.1.15,2013-09-08 19:15:00,
2013-09-08 15:20:00,70.1,51.1,29.93,WNW,284,6.0,7.0,51,0.00,,,0.00,Wunderground v.1.15,2013-09-08 19:20:00,
2013-09-08 15:25:00,69.9,49.9,29.92,WNW,287,7.0,10.0,49,0.00,,,0.00,Wunderground v.1.15,2013-09-08 19:25:00,
2013-09-08 15:30:00,69.9,49.9,29.93,NW,310,7.0,7.0,49,0.00,,,0.00,Wunderground v.1.15,2013-09-08 19:30:00,
2013-09-08 15:35:00,69.4,48.9,29.93,WNW,286,6.0,7.0,48,0.00,,,0.00,Wunderground v.1.15,2013-09-08 19:35:00,
2013-09-08 15:39:00,69.4,49.9,29.93,West,263,6.0,6.0,50,0.00,,,0.00,Wunderground v.1.15,2013-09-08 19:39:00,
2013-09-08 15:44:00,69.4,49.4,29.93,West,274,6.0,6.0,49,0.00,,,0.00,Wunderground v.1.15,2013-09-08 19:44:00,
2013-09-08 15:50:00,69.5,50.6,29.93,WNW,287,5.0,5.0,51,0.00,,,0.00,Wunderground v.1.15,2013-09-08 19:50:00,
2013-09-08 15:55:00,69.5,49.5,29.93,WNW,285,5.0,6.0,49,0.00,,,0.00,Wunderground v.1.15,2013-09-08 19:55:00,
2013-09-08 16:00:00,69.5,49.5,29.93,West,279,6.0,6.0,49,0.00,,,0.00,Wunderground v.1.15,2013-09-08 20:00:00,
2013-09-08 16:05:00,69.0,49.6,29.93,NW,316,5.0,8.0,50,0.00,,,0.00,Wunderground v.1.15,2013-09-08 20:05:00,
2013-09-08 16:10:00,68.6,50.3,29.93,NW,319,5.0,5.0,52,0.00,,,0.00,Wunderground v.1.15,2013-09-08 20:10:00,
2013-09-08 16:15:00,68.7,49.8,29.93,NNW,330,4.0,5.0,51,0.00,,,0.00,Wunderground v.1.15,2013-09-08 20:15:00,
2013-09-08 16:25:00,68.1,48.8,29.94,WSW,254,6.0,6.0,50,0.00,,,0.00,Wunderground v.1.15,2013-09-08 20:25:00,
2013-09-08 16:30:00,67.8,49.5,29.93,NW,310,6.0,6.0,52,0.00,,,0.00,Wunderground v.1.15,2013-09-08 20:30:00,
2013-09-08 16:35:00,67.5,48.7,29.93,WNW,293,5.0,6.0,51,0.00,,,0.00,Wunderground v.1.15,2013-09-08 20:35:00,
2013-09-08 16:40:00,67.0,48.8,29.93,NW,323,5.0,5.0,52,0.00,,,0.00,Wunderground v.1.15,2013-09-08 20:40:00,
2013-09-08 16:45:00,66.7,49.0,29.93,WNW,299,5.0,6.0,53,0.00,,,0.00,Wunderground v.1.15,2013-09-08 20:45:00,
2013-09-08 16:50:00,66.6,49.9,29.94,NW,313,5.0,6.0,55,0.00,,,0.00,Wunderground v.1.15,2013-09-08 20:50:00,
2013-09-08 16:54:00,66.5,48.3,29.94,NNW,344,5.0,8.0,52,0.00,,,0.00,Wunderground v.1.15,2013-09-08 20:54:00,
2013-09-08 16:59:00,66.1,47.4,29.94,WNW,296,6.0,6.0,51,0.00,,,0.00,Wunderground v.1.15,2013-09-08 20:59:00,
2013-09-08 17:05:00,65.8,48.7,29.94,West,281,5.0,6.0,54,0.00,,,0.00,Wunderground v.1.15,2013-09-08 21:05:00,
2013-09-08 17:10:00,65.7,49.1,29.95,NW,311,4.0,5.0,55,0.00,,,0.00,Wunderground v.1.15,2013-09-08 21:10:00,
2013-09-08 17:15:00,65.6,48.5,29.95,WNW,294,4.0,5.0,54,0.00,,,0.00,Wunderground v.1.15,2013-09-08 21:15:00,
2013-09-08 17:20:00,65.5,48.4,29.95,WNW,299,3.0,7.0,54,0.00,,,0.00,Wunderground v.1.15,2013-09-08 21:20:00,
2013-09-08 17:25:00,65.3,47.2,29.95,WNW,303,4.0,7.0,52,0.00,,,0.00,Wunderground v.1.15,2013-09-08 21:25:00,
2013-09-08 17:35:00,64.9,47.9,29.96,NNW,348,4.0,5.0,54,0.00,,,0.00,Wunderground v.1.15,2013-09-08 21:35:00,
2013-09-08 17:40:00,64.8,47.3,29.96,NW,319,4.0,4.0,53,0.00,,,0.00,Wunderground v.1.15,2013-09-08 21:40:00,
2013-09-08 17:45:00,64.6,47.1,29.96,NW,308,4.0,9.0,53,0.00,,,0.00,Wunderground v.1.15,2013-09-08 21:45:00,
2013-09-08 17:50:00,64.4,46.9,29.96,WNW,294,4.0,4.0,53,0.00,,,0.00,Wunderground v.1.15,2013-09-08 21:50:00,
2013-09-08 17:55:00,64.2,45.7,29.96,WNW,301,5.0,5.0,51,0.00,,,0.00,Wunderground v.1.15,2013-09-08 21:55:00,
2013-09-08 18:00:00,64.0,46.5,29.97,West,273,4.0,4.0,53,0.00,,,0.00,Wunderground v.1.15,2013-09-08 22:00:00,
2013-09-08 18:04:00,63.9,46.4,29.97,WSW,237,2.0,4.0,53,0.00,,,0.00,Wunderground v.1.15,2013-09-08 22:04:00,
2013-09-08 18:09:00,63.6,46.1,29.97,West,262,2.0,4.0,53,0.00,,,0.00,Wunderground v.1.15,2013-09-08 22:09:00,
2013-09-08 18:15:00,63.4,46.0,29.97,West,270,3.0,4.0,53,0.00,,,0.00,Wunderground v.1.15,2013-09-08 22:15:00,
2013-09-08 18:20:00,63.2,46.8,29.98,WNW,301,3.0,3.0,55,0.00,,,0.00,Wunderground v.1.15,2013-09-08 22:20:00,
2013-09-08 18:25:00,63.0,46.6,29.98,WNW,297,1.0,4.0,55,0.00,,,0.00,Wunderground v.1.15,2013-09-08 22:25:00,
2013-09-08 18:30:00,62.8,46.4,29.98,WNW,288,2.0,6.0,55,0.00,,,0.00,Wunderground v.1.15,2013-09-08 22:30:00,
2013-09-08 18:35:00,62.5,46.6,29.98,NW,305,2.0,6.0,56,0.00,,,0.00,Wunderground v.1.15,2013-09-08 22:35:00,
2013-09-08 18:40:00,62.3,46.4,29.99,WNW,292,1.0,1.0,56,0.00,,,0.00,Wunderground v.1.15,2013-09-08 22:40:00,
2013-09-08 18:44:00,62.0,46.1,29.99,NW,305,1.0,4.0,56,0.00,,,0.00,Wunderground v.1.15,2013-09-08 22:44:00,
2013-09-08 18:50:00,61.8,46.4,29.99,WNW,302,2.0,2.0,57,0.00,,,0.00,Wunderground v.1.15,2013-09-08 22:50:00,
2013-09-08 18:55:00,61.5,46.6,29.99,WNW,302,1.0,2.0,58,0.00,,,0.00,Wunderground v.1.15,2013-09-08 22:55:00,
2013-09-08 19:00:00,61.2,46.3,29.99,NW,319,1.0,2.0,58,0.00,,,0.00,Wunderground v.1.15,2013-09-08 23:00:00,
2013-09-08 19:05:00,60.8,45.9,30.00,WNW,293,1.0,2.0,58,0.00,,,0.00,Wunderground v.1.15,2013-09-08 23:05:00,
2013-09-08 19:10:00,60.5,46.1,30.00,NW,311,2.0,2.0,59,0.00,,,0.00,Wunderground v.1.15,2013-09-08 23:10:00,
2013-09-08 19:14:00,60.2,46.3,30.00,NW,311,1.0,2.0,60,0.00,,,0.00,Wunderground v.1.15,2013-09-08 23:14:00,
2013-09-08 19:19:00,59.8,46.3,30.01,NW,311,0.0,0.0,61,0.00,,,0.00,Wunderground v.1.15,2013-09-08 23:19:00,
2013-09-08 19:25:00,59.4,45.9,30.01,NW,309,0.0,0.0,61,0.00,,,0.00,Wunderground v.1.15,2013-09-08 23:25:00,
2013-09-08 19:30:00,59.0,45.6,30.01,NW,316,1.0,1.0,61,0.00,,,0.00,Wunderground v.1.15,2013-09-08 23:30:00,
2013-09-08 19:35:00,58.7,45.7,30.02,WNW,303,1.0,1.0,62,0.00,,,0.00,Wunderground v.1.15,2013-09-08 23:35:00,
2013-09-08 19:40:00,58.4,45.8,30.02,NW,314,1.0,1.0,63,0.00,,,0.00,Wunderground v.1.15,2013-09-08 23:40:00,
2013-09-08 19:45:00,58.1,45.6,30.03,NW,310,0.0,1.0,63,0.00,,,0.00,Wunderground v.1.15,2013-09-08 23:45:00,
2013-09-08 19:50:00,57.8,45.7,30.03,NW,310,0.0,0.0,64,0.00,,,0.00,Wunderground v.1.15,2013-09-08 23:50:00,
2013-09-08 19:54:00,57.6,45.5,30.03,NW,309,0.0,0.0,64,0.00,,,0.00,Wunderground v.1.15,2013-09-08 23:54:00,
2013-09-08 19:59:00,57.2,45.5,30.04,NW,309,0.0,0.0,65,0.00,,,0.00,Wunderground v.1.15,2013-09-08 23:59:00,
2013-09-08 20:05:00,57.0,45.3,30.04,NW,309,0.0,0.0,65,0.00,,,0.00,Wunderground v.1.15,2013-09-09 00:05:00,
2013-09-08 20:10:00,56.8,46.0,30.05,NW,309,0.0,0.0,67,0.00,,,0.00,Wunderground v.1.15,2013-09-09 00:10:00,
2013-09-08 20:15:00,56.4,46.0,30.05,NW,309,0.0,0.0,68,0.00,,,0.00,Wunderground v.1.15,2013-09-09 00:15:00,
2013-09-08 20:20:00,56.1,45.3,30.05,NW,309,0.0,0.0,67,0.00,,,0.00,Wunderground v.1.15,2013-09-09 00:20:00,
2013-09-08 20:25:00,55.9,47.0,30.06,NW,309,0.0,0.0,72,0.00,,,0.00,Wunderground v.1.15,2013-09-09 00:25:00,
2013-09-08 20:29:00,55.5,45.5,30.06,NW,309,0.0,0.0,69,0.00,,,0.00,Wunderground v.1.15,2013-09-09 00:29:00,
2013-09-08 20:34:00,55.2,46.0,30.06,NW,309,0.0,0.0,71,0.00,,,0.00,Wunderground v.1.15,2013-09-09 00:34:00,
2013-09-08 20:40:00,54.8,44.8,30.06,NW,309,0.0,0.0,69,0.00,,,0.00,Wunderground v.1.15,2013-09-09 00:40:00,
2013-09-08 20:44:00,54.6,45.0,30.07,NW,309,0.0,0.0,70,0.00,,,0.00,Wunderground v.1.15,2013-09-09 00:44:00,
2013-09-08 20:50:00,54.3,45.1,30.07,NW,309,0.0,0.0,71,0.00,,,0.00,Wunderground v.1.15,2013-09-09 00:50:00,
2013-09-08 20:55:00,54.1,44.5,30.07,NW,309,0.0,0.0,70,0.00,,,0.00,Wunderground v.1.15,2013-09-09 00:55:00,
2013-09-08 21:00:00,54.0,44.4,30.08,NW,309,0.0,0.0,70,0.00,,,0.00,Wunderground v.1.15,2013-09-09 01:00:00,
2013-09-08 21:05:00,53.9,44.0,30.08,NW,309,0.0,0.0,69,0.00,,,0.00,Wunderground v.1.15,2013-09-09 01:05:00,
2013-09-08 21:09:00,53.9,44.0,30.08,WNW,302,0.0,0.0,69,0.00,,,0.00,Wunderground v.1.15,2013-09-09 01:09:00,
2013-09-08 21:14:00,53.9,43.6,30.08,WNW,300,0.0,0.0,68,0.00,,,0.00,Wunderground v.1.15,2013-09-09 01:14:00,
2013-09-08 21:19:00,54.0,43.7,30.08,NW,311,0.0,0.0,68,0.00,,,0.00,Wunderground v.1.15,2013-09-09 01:19:00,
2013-09-08 21:25:00,54.0,43.3,30.09,WNW,298,0.0,1.0,67,0.00,,,0.00,Wunderground v.1.15,2013-09-09 01:25:00,
2013-09-08 21:30:00,54.0,43.3,30.09,WNW,291,1.0,4.0,67,0.00,,,0.00,Wunderground v.1.15,2013-09-09 01:30:00,
2013-09-08 21:35:00,54.1,43.4,30.09,WNW,298,2.0,4.0,67,0.00,,,0.00,Wunderground v.1.15,2013-09-09 01:35:00,
2013-09-08 21:40:00,54.0,43.3,30.09,WNW,295,1.0,1.0,67,0.00,,,0.00,Wunderground v.1.15,2013-09-09 01:40:00,
2013-09-08 21:45:00,53.9,45.1,30.09,WNW,295,0.0,1.0,72,0.00,,,0.00,Wunderground v.1.15,2013-09-09 01:45:00,
2013-09-08 21:49:00,53.7,44.5,30.09,WNW,295,0.0,1.0,71,0.00,,,0.00,Wunderground v.1.15,2013-09-09 01:49:00,
2013-09-08 21:54:00,53.5,43.6,30.10,WNW,282,0.0,1.0,69,0.00,,,0.00,Wunderground v.1.15,2013-09-09 01:54:00,
2013-09-08 21:59:00,53.4,43.1,30.10,West,281,0.0,0.0,68,0.00,,,0.00,Wunderground v.1.15,2013-09-09 01:59:00,
2013-09-08 22:05:00,53.3,43.4,30.10,West,281,0.0,0.0,69,0.00,,,0.00,Wunderground v.1.15,2013-09-09 02:05:00,
2013-09-08 22:10:00,53.2,44.0,30.10,West,281,0.0,0.0,71,0.00,,,0.00,Wunderground v.1.15,2013-09-09 02:10:00,
2013-09-08 22:15:00,52.9,43.7,30.10,West,281,0.0,0.0,71,0.00,,,0.00,Wunderground v.1.15,2013-09-09 02:15:00,
2013-09-08 22:20:00,52.6,43.5,30.11,West,281,0.0,0.0,71,0.00,,,0.00,Wunderground v.1.15,2013-09-09 02:20:00,
2013-09-08 22:24:00,52.4,43.3,30.11,West,281,0.0,0.0,71,0.00,,,0.00,Wunderground v.1.15,2013-09-09 02:24:00,
2013-09-08 22:29:00,52.2,43.4,30.11,West,281,0.0,0.0,72,0.00,,,0.00,Wunderground v.1.15,2013-09-09 02:29:00,
2013-09-08 22:35:00,51.9,43.5,30.12,West,281,0.0,0.0,73,0.00,,,0.00,Wunderground v.1.15,2013-09-09 02:35:00,
2013-09-08 22:40:00,51.6,42.9,30.12,WNW,288,0.0,0.0,72,0.00,,,0.00,Wunderground v.1.15,2013-09-09 02:40:00,
2013-09-08 22:45:00,51.4,43.0,30.12,WNW,288,0.0,0.0,73,0.00,,,0.00,Wunderground v.1.15,2013-09-09 02:45:00,
2013-09-08 22:50:00,51.3,42.9,30.12,WNW,288,0.0,0.0,73,0.00,,,0.00,Wunderground v.1.15,2013-09-09 02:50:00,
2013-09-08 22:55:00,51.1,42.7,30.13,WNW,288,0.0,0.0,73,0.00,,,0.00,Wunderground v.1.15,2013-09-09 02:55:00,
2013-09-08 22:59:00,50.9,42.9,30.13,WNW,288,0.0,0.0,74,0.00,,,0.00,Wunderground v.1.15,2013-09-09 02:59:00,
2013-09-08 23:04:00,50.8,43.2,30.13,WNW,288,0.0,0.0,75,0.00,,,0.00,Wunderground v.1.15,2013-09-09 03:04:00,
2013-09-08 23:09:00,50.7,43.1,30.13,WNW,289,0.0,0.0,75,0.00,,,0.00,Wunderground v.1.15,2013-09-09 03:09:00,
2013-09-08 23:15:00,50.6,43.0,30.13,WNW,292,0.0,0.0,75,0.00,,,0.00,Wunderground v.1.15,2013-09-09 03:15:00,
2013-09-08 23:20:00,50.5,42.9,30.14,WNW,292,0.0,0.0,75,0.00,,,0.00,Wunderground v.1.15,2013-09-09 03:20:00,
2013-09-08 23:25:00,50.4,42.8,30.14,NW,309,0.0,0.0,75,0.00,,,0.00,Wunderground v.1.15,2013-09-09 03:25:00,
2013-09-08 23:30:00,50.3,43.0,30.14,NW,313,0.0,0.0,76,0.00,,,0.00,Wunderground v.1.15,2013-09-09 03:30:00,
2013-09-08 23:35:00,50.3,42.7,30.13,NW,317,0.0,0.0,75,0.00,,,0.00,Wunderground v.1.15,2013-09-09 03:35:00,
2013-09-08 23:40:00,50.3,42.7,30.13,NW,320,0.0,0.0,75,0.00,,,0.00,Wunderground v.1.15,2013-09-09 03:40:00,
2013-09-08 23:44:00,50.3,43.0,30.13,NW,320,0.0,0.0,76,0.00,,,0.00,Wunderground v.1.15,2013-09-09 03:44:00,
2013-09-08 23:49:00,50.3,42.7,30.13,NW,320,0.0,0.0,75,0.00,,,0.00,Wunderground v.1.15,2013-09-09 03:49:00,
2013-09-08 23:55:00,50.2,42.6,30.13,NW,311,0.0,1.0,75,0.00,,,0.00,Wunderground v.1.15,2013-09-09 03:55:00,